Theta_e
358 358 358 359 359 356 355 354 352 352 354 353 351 349 348 349 351 351 352 350 347 345 343 341 344 346 345 344 346 347 347 347 345 346 346 345 347 347 344 341 339 338 337 335 335 335 334 334 334 334 334 334 334 333 333 333 332 331 329 328 327 326 326 326 327 327 328 328 329 329 329 328 329 328
358 358 358 359 359 358 358 356 353 356 357 356 355 353 350 349 350 351 353 352 349 346 344 342 347 352 350 347 347 348 349 350 348 348 348 348 348 348 348 347 344 339 337 337 337 337 336 335 336 335 334 335 335 335 334 334 334 333 333 332 330 329 327 327 327 327 328 328 328 329 328 329 328 328
358 359 359 359 358 358 358 357 355 356 359 359 358 358 356 354 353 352 354 354 352 349 346 344 345 349 350 349 348 349 349 350 350 349 349 348 348 347 347 346 344 341 339 339 338 338 337 337 337 336 335 335 335 335 335 335 335 334 334 334 333 333 331 330 329 328 328 328 328 329 329 329 329 329
358 359 360 359 359 359 359 359 357 356 358 360 359 359 359 359 357 356 357 357 356 353 350 349 348 347 347 347 347 348 349 349 350 350 350 350 350 349 348 347 346 345 344 343 342 341 341 340 339 339 337 337 336 336 335 335 335 335 335 335 334 334 333 333 332 331 329 329 329 329 330 330 330 330
359 359 360 361 360 360 360 361 358 356 358 360 360 360 360 360 360 360 360 360 360 357 355 354 353 352 352 351 351 351 351 351 352 351 352 352 353 353 353 353 352 352 350 349 348 347 346 346 344 344 342 341 340 338 338 337 336 336 335 335 335 335 334 334 334 333 333 331 331 330 330 330 331 331
361 361 362 362 362 361 361 360 359 357 356 357 359 359 359 360 360 360 361 361 360 359 357 356 355 355 355 355 354 355 355 355 355 355 355 355 355 356 356 356 356 355 354 353 352 351 350 350 349 348 347 346 345 344 342 341 339 338 338 337 336 336 336 335 334 334 334 334 333 332 331 331 332 332
361 361 362 362 362 360 360 361 361 358 356 355 356 357 358 358 358 358 360 361 361 361 359 358 357 357 357 357 357 357 357 357 357 357 358 358 357 357 357 356 357 356 355 355 354 353 352 351 351 351 350 349 349 348 346 345 344 342 341 340 339 339 338 337 336 335 334 334 334 334 334 332 332 333
360 361 362 361 360 359 360 362 362 360 358 357 356 356 356 356 356 356 357 359 361 361 361 361 361 360 360 361 360 360 359 358 359 359 360 359 359 358 358 357 358 357 357 356 355 354 353 353 353 352 351 351 351 351 350 349 348 347 345 343 342 341 340 339 338 337 336 335 335 335 334 334 333 333
361 360 362 361 360 359 360 361 362 361 359 359 358 359 359 359 359 359 360 360 361 362 361 361 360 360 361 360 361 360 360 360 361 360 360 360 359 359 358 357 358 358 358 358 357 357 356 356 355 354 353 353 353 353 353 351 351 349 349 347 345 343 341 341 340 339 338 337 336 336 335 335 335 334
360 361 361 361 360 360 360 360 361 361 360 361 361 361 361 361 362 363 362 362 362 362 361 361 360 360 360 360 360 361 361 360 360 359 359 359 360 360 359 358 358 358 358 357 358 358 357 357 356 356 355 355 354 355 355 353 353 352 351 350 348 347 345 343 341 340 339 339 338 337 336 335 335 335
358 360 360 360 359 360 360 360 360 360 361 362 362 362 363 363 363 364 363 362 362 362 362 361 360 360 359 359 360 361 361 361 361 360 360 361 361 360 360 360 359 359 358 358 358 357 357 356 356 356 356 356 355 355 355 355 354 353 352 351 351 350 349 347 346 343 341 339 339 339 338 337 336 335
355 355 356 358 358 360 361 362 361 360 360 361 362 363 363 364 364 365 363 361 362 361 361 360 361 360 360 360 360 361 362 362 362 361 362 361 361 360 360 360 360 359 359 359 359 358 357 356 357 357 357 357 356 356 356 355 355 354 353 351 350 348 347 348 348 347 345 343 340 339 338 338 337 336
354 353 352 352 354 357 359 362 363 362 361 361 362 363 365 365 364 365 364 362 361 361 361 361 361 361 362 361 362 362 362 362 361 362 361 361 361 360 361 360 360 361 360 360 359 359 359 357 357 358 357 357 356 356 356 356 355 355 354 353 350 346 345 345 346 347 347 346 344 342 340 338 337 337
354 354 353 351 349 352 355 357 360 362 360 359 356 356 360 364 365 365 363 362 361 361 362 361 361 361 361 361 361 362 361 360 361 362 362 362 361 361 361 361 361 362 362 361 361 361 360 360 358 357 357 356 354 353 354 355 354 354 353 352 351 350 349 347 346 345 346 346 346 345 343 341 338 337
354 353 353 353 353 352 353 356 357 358 358 355 351 349 350 354 359 362 363 364 362 361 361 361 362 362 361 362 362 362 361 361 361 362 362 362 362 362 362 362 362 361 361 361 362 361 360 358 358 357 356 355 353 352 351 350 350 352 351 351 350 350 350 349 348 347 346 345 346 346 345 344 341 338
357 353 351 351 352 353 355 358 358 359 358 355 352 350 349 348 349 352 356 359 361 362 363 362 362 362 362 363 363 364 364 363 362 362 362 361 362 362 361 361 361 361 360 361 360 358 357 355 355 355 355 354 353 352 350 349 348 349 348 349 350 350 349 349 348 347 347 346 346 345 345 345 343 341
358 358 355 351 351 352 353 357 361 363 364 362 359 357 356 354 351 349 349 351 353 357 360 362 363 364 364 364 364 365 365 364 362 362 362 361 360 361 360 360 361 358 357 358 358 357 355 355 353 353 353 353 351 351 350 348 346 345 344 345 346 347 348 348 348 348 347 347 346 347 346 345 344 343
358 359 360 357 355 354 354 356 362 366 367 367 366 364 363 362 358 354 351 351 352 353 355 357 359 360 361 363 364 365 364 363 362 363 362 360 359 359 357 358 357 353 351 355 357 355 355 354 353 352 351 349 348 347 347 346 345 343 342 341 343 344 344 345 347 348 347 346 346 346 346 345 345 343
362 362 363 362 360 359 359 359 361 365 366 367 368 367 367 366 364 362 358 355 356 356 356 356 356 356 358 361 363 363 363 362 362 361 359 357 356 355 355 355 354 351 350 352 353 353 352 351 349 348 346 345 344 344 344 344 343 343 343 343 343 343 343 344 345 347 347 346 346 345 345 346 345 344
363 364 364 365 364 364 364 362 360 362 364 366 367 367 367 366 366 365 364 362 361 360 360 358 358 359 360 361 362 361 361 360 360 358 356 354 353 352 353 353 352 350 349 348 348 349 348 346 344 343 342 342 342 342 342 342 343 343 344 344 344 343 344 344 345 344 346 345 345 346 345 345 345 344
362 364 364 365 366 366 366 364 361 360 362 364 365 364 364 365 364 364 363 363 362 361 360 360 360 360 360 360 360 360 360 359 357 356 354 350 349 349 350 350 350 349 349 349 347 345 343 342 341 340 340 340 341 341 342 344 343 344 344 344 344 344 343 343 343 343 344 345 345 345 345 345 345 344
363 363 363 364 365 367 367 364 362 361 363 364 364 363 363 363 364 364 363 363 362 361 361 360 360 360 360 361 362 361 359 352 347 347 347 346 346 348 349 351 351 349 349 346 342 340 341 340 339 340 342 342 342 343 343 344 344 343 344 343 343 343 342 342 342 341 342 343 343 344 345 345 344 342
363 363 364 363 363 364 366 365 364 364 363 364 364 364 363 364 363 364 363 363 364 364 364 363 362 363 362 362 361 357 351 342 337 339 341 344 348 350 351 350 348 344 342 340 339 340 342 341 341 342 343 343 343 343 343 343 343 342 341 341 341 342 341 340 340 340 341 342 342 342 343 344 344 342
364 363 364 364 363 361 361 361 363 364 364 364 363 364 364 364 365 365 365 365 365 366 367 366 365 364 362 360 357 354 349 344 342 342 343 347 350 349 346 344 340 337 337 338 339 342 343 342 342 342 342 342 342 342 341 341 340 339 339 340 339 340 339 338 339 340 341 343 343 342 342 343 343 341
364 364 364 365 365 363 360 359 359 360 361 362 363 362 363 363 365 365 365 365 366 366 366 364 363 362 360 358 355 351 348 346 346 348 348 347 345 341 339 337 337 339 340 340 340 341 341 341 340 340 340 340 340 340 339 338 338 338 338 337 337 338 337 338 338 339 341 343 343 343 342 342 342 341
364 364 365 365 365 365 363 361 359 358 358 359 360 360 360 360 362 362 361 361 363 364 364 362 360 360 357 353 349 345 344 344 344 344 343 339 336 336 339 341 342 343 343 341 339 339 340 340 339 339 339 339 337 337 337 337 337 337 336 336 337 338 338 338 339 340 341 343 343 343 343 342 342 342
364 363 364 364 365 365 364 363 361 360 358 357 357 357 356 357 357 357 356 358 360 361 361 360 359 357 353 349 345 345 346 343 339 337 337 338 339 341 342 343 342 341 341 339 338 338 339 339 338 338 337 337 336 336 336 336 336 336 336 337 337 338 339 339 340 341 342 342 343 343 343 342 342 342
362 363 362 363 363 362 362 361 361 360 359 357 356 356 355 355 355 354 354 357 359 360 359 358 356 353 350 348 347 346 343 338 336 338 341 341 341 341 341 340 340 339 338 338 338 337 337 337 338 337 337 335 335 336 336 337 337 337 337 338 338 338 340 341 341 342 342 343 343 343 343 343 342 342
362 361 361 361 361 361 360 360 360 360 359 358 356 355 355 354 354 354 356 358 359 360 359 355 352 350 347 347 346 342 338 336 338 341 341 340 340 340 339 338 338 338 337 337 336 336 336 336 336 337 337 336 336 336 337 337 337 338 339 339 337 335 336 338 340 342 342 342 342 342 342 343 342 342
361 360 360 360 361 361 361 360 360 360 359 358 356 355 354 354 354 356 358 359 358 358 356 350 347 347 345 343 340 338 337 339 340 341 339 339 339 338 336 337 338 338 337 335 334 334 335 336 336 336 337 336 335 336 336 336 336 338 338 336 333 331 332 333 335 336 336 337 336 336 339 343 342 340
358 358 358 358 359 360 361 361 359 360 359 357 356 355 355 355 356 358 357 355 354 354 351 348 346 343 341 338 337 337 338 339 340 339 338 338 337 336 336 337 338 336 334 333 334 334 335 335 335 335 335 335 335 334 335 335 335 335 334 332 330 330 330 329 330 331 333 333 333 333 338 343 343 340
357 356 356 356 357 357 358 358 357 357 356 355 355 355 355 357 357 353 349 347 349 348 345 343 341 338 335 335 336 337 336 337 337 337 337 336 336 336 336 337 336 334 333 333 333 334 334 334 333 333 334 333 333 333 334 334 333 332 331 329 327 326 325 325 326 327 329 332 335 337 340 343 342 340
356 356 355 355 356 356 357 357 356 355 355 354 353 353 354 355 353 347 342 343 346 344 340 336 334 334 334 336 337 336 335 336 337 336 335 335 336 336 336 336 334 332 331 333 333 333 333 333 332 332 331 331 331 332 332 332 331 329 327 326 324 322 322 322 323 324 326 329 334 338 340 341 341 340
356 356 355 355 356 356 356 356 355 354 353 352 352 351 351 350 346 343 341 342 340 337 336 336 335 335 335 336 336 335 334 335 335 336 335 335 336 336 335 334 332 332 332 333 333 332 332 332 332 331 330 330 331 331 330 329 329 327 325 323 322 320 320 320 321 323 325 328 333 338 340 340 340 339
355 357 356 355 356 355 355 354 353 353 352 351 350 349 346 344 343 341 340 336 330 326 330 334 336 335 335 335 334 334 333 332 334 335 335 335 335 334 333 332 332 332 332 332 333 332 331 331 330 330 329 329 330 331 329 327 326 325 323 321 320 319 319 319 320 323 326 328 331 334 337 339 339 338
356 357 356 356 356 355 354 353 352 352 352 349 347 346 343 340 339 336 331 328 329 332 334 335 335 335 334 334 333 332 332 332 333 334 334 334 334 334 332 332 331 331 331 333 332 331 331 330 328 328 328 328 328 328 329 326 325 323 322 320 319 318 318 318 319 322 325 325 325 326 329 332 336 336
358 358 356 357 357 355 353 352 352 351 348 345 342 341 338 336 334 331 328 328 333 336 335 334 334 334 333 333 331 331 331 332 332 333 334 333 333 333 331 331 331 332 332 333 332 330 330 329 327 326 327 328 326 326 326 326 324 323 322 320 319 318 317 317 319 321 322 322 322 322 324 326 328 330
359 359 357 356 356 355 352 350 348 346 342 340 339 337 335 333 334 334 333 335 336 335 334 334 334 333 332 331 331 331 332 333 332 333 333 333 332 333 332 331 331 331 331 332 331 330 330 329 327 326 326 326 325 324 325 324 324 323 321 320 319 318 317 317 318 319 320 320 321 321 321 322 323 324
359 359 358 356 355 353 349 346 345 341 338 336 336 335 334 335 337 336 336 335 335 334 334 334 332 331 330 331 331 331 332 333 332 332 332 332 332 332 332 330 329 329 330 330 330 329 328 328 328 326 326 326 325 324 324 324 323 322 321 320 319 318 316 316 317 318 318 319 319 320 320 321 321 321
354 355 355 354 352 349 346 344 342 339 337 336 336 335 335 337 337 335 334 333 333 333 332 332 332 331 331 331 331 330 331 332 332 331 331 331 330 331 330 329 328 329 329 329 329 328 327 327 327 325 325 325 325 324 324 324 322 321 321 320 319 318 316 314 314 316 316 317 318 320 320 320 320 320
348 348 348 348 346 344 342 341 340 339 338 338 336 335 335 335 334 332 331 332 332 333 333 333 332 331 330 331 331 330 330 331 331 330 330 329 329 329 329 328 328 328 328 328 328 327 327 326 325 324 324 324 324 323 323 323 322 321 321 320 319 318 317 314 313 314 314 314 316 318 320 320 320 319
343 342 340 340 340 339 339 339 338 338 337 337 335 333 333 333 331 330 331 333 334 334 334 334 332 331 330 332 332 331 330 330 330 330 329 329 328 329 328 328 328 328 328 327 327 327 326 326 325 324 324 324 323 323 323 323 322 321 320 319 319 318 317 316 315 314 313 313 314 315 317 319 320 320
340 339 337 337 337 338 338 338 337 335 334 334 334 333 332 331 331 331 332 332 333 333 332 332 332 330 330 331 331 331 330 330 329 329 329 329 328 328 328 327 328 327 327 327 327 326 325 325 325 324 324 323 323 322 322 322 321 321 320 319 319 318 317 317 317 316 314 313 313 314 315 317 319 320
337 336 335 335 335 335 334 334 334 332 331 332 333 332 331 331 330 329 329 330 330 330 329 330 330 331 330 331 330 330 330 330 329 329 329 329 329 329 328 328 327 327 326 326 326 326 325 325 324 324 324 323 323 323 323 322 321 320 319 319 319 318 317 317 317 317 315 313 312 313 314 315 317 318
333 333 332 332 332 331 330 331 332 332 331 331 332 332 332 331 330 329 329 330 330 329 329 330 330 329 329 330 329 329 329 328 329 329 329 329 329 329 328 328 327 327 326 326 326 326 325 325 325 324 324 324 324 323 322 322 321 321 320 319 318 318 317 316 316 317 316 313 312 312 313 315 315 316
Wind_Speed
7 7 7 7 6 5 5 5 4 3 3 2 3 3 4 3 3 2 2 3 4 4 5 5 7 9 8 9 9 11 13 13 14 16 17 17 18 20 20 20 20 20 22 24 25 27 28 29 30 30 30 30 30 30 30 30 30 30 30 30 30 30 30 30 29 29 28 27 27 26 24 23 21 20
8 8 7 7 7 6 6 6 6 5 5 5 5 5 5 5 5 4 3 4 5 6 7 6 5 6 7 9 11 12 14 15 16 17 18 18 19 19 21 22 23 23 23 23 25 27 28 30 32 33 33 33 34 34 34 34 33 33 33 33 33 33 33 33 32 32 31 30 30 29 27 26 25 23
9 8 8 8 8 7 7 7 7 6 6 6 6 6 7 7 7 7 6 5 6 7 8 9 9 8 8 10 12 14 15 16 18 19 20 21 21 20 21 23 25 25 25 25 26 27 28 30 31 33 34 35 36 37 37 37 37 37 37 36 36 35 35 35 35 35 34 33 32 32 30 29 28 26
9 9 9 9 8 8 7 8 8 7 7 8 7 8 8 8 9 9 8 7 8 9 10 12 12 12 13 13 15 16 17 18 19 21 21 22 22 22 23 24 25 25 25 25 26 27 28 29 30 32 34 35 37 38 39 40 40 40 40 40 40 39 38 38 37 37 36 35 35 34 33 32 30 29
10 10 10 10 10 9 9 9 9 9 9 9 9 9 9 10 9 9 10 10 10 11 11 12 13 13 14 15 16 17 18 19 18 19 20 20 20 21 22 22 22 23 25 25 26 26 27 28 28 29 31 33 35 37 38 40 41 42 42 43 43 43 43 42 41 40 39 38 37 36 35 34 33 32
11 11 11 12 11 11 11 11 11 10 10 10 10 10 10 10 10 10 11 11 11 12 12 12 14 14 14 16 17 17 19 19 18 18 19 18 18 19 20 20 20 21 24 25 26 27 28 28 28 29 30 31 32 33 35 36 38 39 41 42 44 45 46 46 45 44 42 41 39 38 37 37 36 34
12 12 12 13 12 12 12 12 12 11 11 11 11 11 11 10 10 10 12 12 13 13 13 13 14 14 14 16 17 18 20 20 19 18 19 18 18 17 18 19 20 21 23 25 27 28 30 30 30 30 30 31 31 32 33 33 34 36 37 39 41 43 45 46 47 47 46 45 43 41 40 39 38 37
14 13 14 14 13 12 12 12 12 12 12 12 11 12 11 11 11 12 12 14 14 14 15 14 14 15 16 18 19 20 21 20 18 17 18 17 17 18 18 20 21 21 23 25 27 28 29 29 29 29 30 30 31 32 33 34 34 35 36 37 39 41 42 43 45 46 47 47 47 45 43 42 40 39
15 15 15 15 14 13 13 13 13 12 12 12 12 12 12 11 12 12 13 14 14 15 15 16 16 17 18 20 20 19 18 18 16 16 17 17 18 18 18 19 20 20 21 22 23 23 24 25 26 28 29 30 31 33 34 34 34 35 36 37 38 40 41 42 43 44 45 46 47 48 47 46 44 42
17 16 16 16 15 15 14 14 13 13 13 13 13 13 13 12 11 12 13 14 14 15 16 17 18 18 18 19 19 16 15 15 16 16 16 16 17 17 18 20 20 19 19 20 21 22 22 24 26 29 30 31 31 32 32 33 33 33 34 35 36 38 39 41 42 43 44 44 45 47 48 48 47 45
17 17 17 17 17 17 16 15 14 14 14 14 14 14 13 12 12 13 13 14 14 15 16 17 18 18 17 18 18 14 12 14 15 15 15 16 17 17 19 21 21 21 21 20 21 22 22 23 25 28 30 31 33 33 32 32 31 30 31 33 33 34 36 37 39 41 43 44 44 45 46 48 48 48
18 18 18 18 18 18 18 17 16 15 14 14 14 14 13 12 12 13 13 13 14 14 16 17 17 18 18 18 17 14 12 13 13 12 14 17 19 20 20 20 21 23 23 22 21 20 21 23 24 25 28 30 32 34 34 34 33 31 30 29 29 30 32 33 35 37 40 42 43 44 45 46 47 48
18 18 18 18 19 19 19 19 18 18 16 15 14 13 12 12 13 13 14 13 13 14 15 17 17 17 18 17 16 13 11 13 14 12 13 17 20 22 22 21 21 22 22 22 22 20 20 23 25 24 26 28 29 31 33 34 33 33 32 29 28 28 29 31 32 33 35 38 40 42 44 45 46 47
18 18 19 19 19 19 20 21 22 22 21 20 19 16 13 12 12 13 14 15 15 15 15 16 16 17 18 17 15 14 14 15 14 12 13 16 19 22 23 21 19 17 18 20 22 21 20 21 24 25 26 26 27 28 28 29 30 32 33 32 31 31 31 31 32 32 33 34 35 37 40 43 45 47
19 19 19 19 19 19 20 22 23 25 25 25 25 23 21 19 17 17 16 16 15 15 16 17 16 17 18 17 15 16 16 13 11 13 15 16 19 21 21 20 17 15 16 19 24 26 23 21 23 25 24 25 27 28 28 29 31 32 34 35 35 35 34 34 34 34 34 34 34 34 36 38 42 44
19 19 19 19 19 19 20 21 22 24 26 26 26 25 24 23 22 23 23 21 19 17 16 17 18 18 18 17 16 16 14 11 12 16 17 16 18 19 20 21 20 20 19 20 24 28 25 21 21 24 23 23 25 27 29 32 34 35 35 35 36 36 35 36 36 35 35 35 35 35 35 36 38 40
20 19 19 19 19 19 20 21 20 19 20 21 21 20 20 20 21 23 26 28 27 24 20 18 19 18 16 15 15 15 13 13 16 18 17 16 17 18 19 21 23 26 25 22 23 25 23 19 19 21 21 21 23 26 28 31 34 36 36 36 36 36 36 36 36 35 35 36 36 36 35 35 36 38
20 20 19 19 19 19 20 20 19 18 17 16 16 17 18 19 20 21 23 25 27 28 27 26 25 23 20 17 17 16 15 16 18 19 19 18 18 20 20 20 24 28 26 22 21 23 21 19 19 21 21 22 25 26 27 30 33 35 36 36 36 35 34 35 34 34 33 34 35 36 35 35 35 36
19 20 20 19 19 19 20 21 20 18 16 15 15 15 16 17 19 20 21 23 22 23 25 26 27 27 25 21 18 17 17 19 20 20 20 21 21 21 20 18 20 22 20 17 18 20 20 19 21 23 23 25 26 26 27 30 32 32 31 31 30 31 31 30 30 31 32 32 32 33 33 33 34 34
20 19 20 20 20 20 21 23 23 22 19 15 14 15 16 16 17 18 20 22 22 21 21 22 23 24 25 23 20 19 20 23 23 20 19 20 19 18 16 14 13 12 14 15 16 17 19 20 22 26 26 25 27 28 27 27 26 26 25 26 27 29 29 29 27 26 27 28 29 31 30 30 31 32
20 21 21 21 21 21 22 24 25 25 23 20 16 16 16 16 17 18 19 20 21 22 21 21 21 24 26 24 22 21 23 25 23 19 17 17 16 14 14 13 12 13 14 14 14 15 19 20 22 26 27 26 26 25 24 22 21 23 24 25 27 27 28 29 29 27 25 24 23 27 29 30 30 30
21 22 24 24 23 22 22 24 25 25 25 22 19 18 17 17 18 18 17 17 18 19 19 20 22 25 24 22 20 21 21 19 16 15 15 14 13 12 13 14 16 17 13 12 14 17 20 21 22 24 26 25 23 20 20 21 23 24 25 26 26 25 25 27 29 29 28 26 24 24 26 28 29 30
21 22 24 27 28 27 24 24 24 25 26 24 20 18 17 18 18 17 16 16 16 15 15 18 20 19 16 16 18 20 17 12 9 10 12 12 11 11 13 15 16 15 11 13 19 20 20 22 23 22 21 18 18 19 20 22 24 25 26 26 25 24 25 26 27 29 29 28 26 24 24 25 27 28
21 22 23 25 29 31 30 29 27 26 26 25 22 20 18 17 16 14 13 13 13 12 11 13 13 12 12 14 15 15 12 9 9 10 10 9 9 10 13 15 16 15 13 16 22 22 19 20 21 21 19 14 16 21 23 23 25 25 25 25 25 25 26 26 26 27 27 27 27 26 24 24 26 28
20 21 22 23 26 30 31 32 31 30 30 29 27 24 21 18 15 12 11 11 11 11 11 12 12 12 13 13 11 10 9 9 9 8 7 7 9 11 13 15 17 17 16 18 21 20 17 18 19 20 20 18 19 24 25 24 23 22 23 25 27 27 28 28 27 27 26 25 27 27 25 24 25 27
21 21 21 22 23 26 27 27 28 29 31 33 32 31 28 23 19 17 15 14 13 13 12 12 12 12 12 10 8 7 7 5 4 4 6 10 13 14 12 12 14 16 17 19 20 17 15 17 19 19 20 20 21 24 24 23 23 23 25 26 27 29 29 29 28 26 24 24 25 27 28 27 26 25
21 20 20 20 21 23 24 23 23 24 26 30 33 33 31 27 24 23 19 15 14 14 13 11 10 11 10 8 6 4 3 4 7 9 10 12 12 11 10 10 11 14 16 17 16 15 15 17 18 19 21 23 23 22 23 25 26 27 27 26 27 29 29 28 28 27 26 26 26 25 27 29 27 24
21 20 20 21 21 21 21 21 21 21 22 23 26 27 26 24 24 23 19 13 12 13 13 11 10 9 7 4 3 3 4 7 10 9 8 8 8 9 9 9 10 11 12 13 13 13 15 16 17 19 21 24 24 21 22 26 28 29 28 26 27 28 29 30 30 28 27 27 26 25 25 26 26 23
19 17 17 19 19 20 19 20 21 21 20 19 19 20 20 20 20 18 13 11 11 11 9 8 7 6 4 2 1 4 7 9 8 6 6 7 8 8 8 9 10 9 9 10 12 13 14 16 18 19 20 22 22 21 22 23 25 27 26 25 27 29 29 29 29 28 28 28 29 31 27 23 23 24
18 15 14 14 14 15 18 19 20 20 18 17 16 17 18 18 16 13 11 10 10 9 8 7 5 4 2 1 2 5 7 6 4 4 6 7 6 7 9 10 10 9 8 10 11 13 15 16 18 19 19 20 20 20 21 22 23 23 24 26 31 32 30 28 28 28 29 30 33 36 30 20 18 20
20 16 14 13 11 13 16 18 18 19 18 16 16 16 17 16 13 11 11 10 8 8 8 5 4 2 1 3 5 6 5 4 3 4 6 6 6 7 9 10 9 9 11 11 12 13 15 17 19 19 19 19 19 19 20 22 22 22 24 27 30 29 28 29 29 27 28 30 32 32 27 19 16 17
20 17 15 14 13 13 15 16 15 16 16 16 14 14 14 14 12 11 11 11 10 10 11 9 6 4 3 3 4 4 4 4 3 3 4 5 6 7 8 8 9 11 13 14 14 14 15 17 21 22 20 19 20 19 19 19 20 22 25 28 28 27 28 30 30 28 28 28 27 25 23 20 18 17
21 19 17 16 16 16 16 17 17 16 15 14 13 13 13 13 12 11 11 11 9 9 10 8 5 4 4 4 4 4 3 2 2 2 3 5 6 8 8 9 10 12 14 15 15 16 17 18 20 22 22 21 19 16 14 16 19 21 24 26 26 27 29 30 30 31 29 27 24 23 22 20 16 13
23 21 20 20 21 21 20 21 20 19 17 15 15 15 14 13 11 10 10 11 10 7 5 3 2 3 4 4 4 3 2 2 2 2 3 4 6 7 9 9 10 12 13 14 15 16 17 18 19 20 22 21 16 11 11 15 17 18 21 24 25 27 29 31 32 34 32 28 25 23 21 19 14 12
25 23 22 22 23 23 22 22 21 20 19 18 17 16 13 11 9 9 10 11 10 7 4 3 2 4 4 4 4 3 2 2 3 3 4 5 6 7 8 9 11 12 13 14 15 15 16 17 18 18 19 18 14 10 11 18 19 18 20 24 26 28 30 31 33 34 33 30 27 24 21 20 17 14
24 24 24 23 22 23 22 21 21 20 19 19 18 15 12 11 10 11 11 9 6 3 2 3 4 4 4 4 4 2 2 3 4 4 5 5 6 7 8 9 10 12 12 13 13 14 14 15 17 18 16 15 11 8 10 18 22 21 22 24 26 28 31 31 31 30 29 29 28 24 21 21 20 16
22 24 26 23 22 23 22 20 20 19 18 18 16 13 11 10 9 10 10 7 4 2 3 5 6 5 5 6 5 3 3 3 4 5 5 6 6 6 8 9 10 11 12 12 12 12 13 14 16 17 15 12 9 7 11 18 21 22 24 25 23 24 28 29 29 29 28 27 26 22 20 20 20 16
19 22 25 22 20 22 22 20 20 18 16 16 15 12 11 10 8 7 7 6 5 6 7 7 7 7 7 7 5 4 4 4 4 6 6 6 6 6 7 9 10 11 12 12 11 11 12 13 15 17 16 12 9 9 13 18 19 21 25 26 24 24 26 25 25 26 26 26 24 22 20 18 17 17
15 18 21 21 21 21 20 19 18 17 16 17 17 14 12 12 11 11 11 11 10 10 9 8 9 8 7 7 5 4 5 5 5 7 6 6 6 6 6 8 10 11 12 12 12 12 13 13 13 13 13 13 12 13 16 19 19 20 22 23 22 24 26 25 23 22 23 24 24 23 21 17 15 15
14 15 18 21 22 21 18 18 17 16 17 18 18 16 16 16 15 13 13 12 12 11 10 9 9 8 7 7 6 6 6 7 7 7 7 6 6 6 6 7 10 11 11 12 13 13 13 12 11 10 10 10 12 15 17 18 18 19 19 17 18 21 24 25 23 20 20 22 23 21 21 19 15 13
15 15 17 20 20 19 18 19 19 17 17 16 14 14 15 15 14 12 11 10 11 12 10 8 7 7 7 8 7 7 7 7 7 7 7 7 7 7 7 8 10 12 11 11 13 14 11 9 8 9 11 12 14 15 16 14 15 19 19 16 17 19 20 21 22 21 20 22 22 19 18 16 13 11
14 15 16 17 17 17 18 19 19 18 17 15 14 15 14 13 12 13 12 12 12 11 10 8 8 8 9 9 9 8 7 7 7 7 7 8 9 9 9 10 11 12 12 12 14 14 13 12 9 7 9 13 15 15 14 13 15 19 20 18 18 19 17 16 19 22 22 21 19 17 15 14 10 8
14 14 14 15 15 15 15 15 15 16 16 13 12 13 13 11 12 13 12 10 9 9 9 9 9 10 10 10 9 7 7 8 9 9 8 10 11 11 12 12 12 12 13 14 15 14 15 16 13 8 7 11 13 12 13 15 15 16 18 18 18 19 16 14 16 20 22 21 19 17 14 13 10 7
15 14 14 15 15 14 14 13 12 12 12 11 10 10 10 10 10 11 10 9 9 10 11 11 11 11 11 10 9 8 8 9 9 8 8 11 13 13 14 14 13 13 14 14 16 16 14 16 16 12 8 10 12 12 13 16 16 15 16 17 17 17 17 16 16 17 19 22 22 19 16 12 9 5
16 15 15 16 16 15 15 15 12 10 10 10 10 9 9 9 10 9 9 10 9 9 9 10 11 11 11 10 9 9 9 9 8 8 10 13 14 15 16 16 15 15 14 14 17 17 14 13 16 16 12 10 9 8 9 14 15 14 14 14 14 14 15 16 16 15 15 19 21 19 16 15 12 9
Wind_Direction
237 234 223 223 238 242 240 254 257 247 255 265 257 252 251 251 269 287 294 295 297 297 292 256 200 204 226 239 246 247 246 249 251 253 255 258 259 262 267 272 275 274 271 269 267 267 267 266 266 265 264 264 263 263 263 263 263 262 261 260 259 257 256 256 256 256 257 258 258 260 261 261 262 263
240 239 233 226 230 234 233 240 242 230 225 236 238 241 241 230 236 259 269 278 283 283 290 286 239 217 234 252 256 254 252 253 255 256 256 257 261 264 266 269 274 276 275 272 269 267 266 265 266 266 265 265 264 263 263 262 262 262 261 260 259 258 257 256 255 255 256 256 257 258 258 259 259 259
239 238 238 236 234 236 238 243 245 231 219 228 235 233 235 232 232 244 256 264 273 275 283 289 285 273 268 267 264 262 259 260 263 265 264 265 270 272 272 272 274 275 276 275 273 271 269 267 266 266 267 267 266 266 265 264 263 263 262 261 260 259 259 258 257 255 255 255 256 256 256 257 257 256
234 235 237 237 236 236 239 245 249 241 226 226 234 236 235 235 232 236 246 255 265 272 277 281 283 282 279 274 270 267 266 265 266 268 269 272 277 278 277 277 278 281 281 281 280 277 275 273 271 270 269 269 269 268 267 267 266 265 264 263 262 261 260 259 258 257 256 255 255 256 256 256 256 255
233 233 235 236 236 235 238 242 245 245 236 227 232 240 240 239 238 234 240 256 269 273 275 276 277 279 278 276 272 270 270 269 269 271 273 276 276 275 274 273 274 278 281 284 285 284 283 281 279 277 275 273 272 271 270 270 269 268 267 266 265 264 262 261 259 258 257 256 255 255 255 255 255 255
232 233 234 235 235 234 236 240 243 246 243 236 234 237 238 242 244 239 240 253 267 275 276 276 277 276 274 273 272 270 269 270 272 271 271 272 272 271 271 272 273 274 276 280 283 285 285 285 285 284 282 279 277 274 273 272 271 270 269 268 266 265 264 262 261 259 258 257 256 255 254 254 254 254
230 232 234 235 234 233 233 235 240 245 246 246 246 244 244 247 249 249 247 249 259 271 277 278 278 278 276 274 273 272 271 275 279 278 276 276 276 275 277 279 279 279 279 280 281 282 284 286 288 289 288 286 284 281 278 275 272 270 268 267 266 265 264 263 262 260 258 257 256 255 254 253 252 252
228 230 233 235 234 233 233 232 236 240 243 245 247 248 248 250 253 255 253 251 254 264 272 274 274 276 277 274 272 274 278 282 285 284 286 288 287 287 290 289 286 285 285 284 282 282 283 287 290 292 292 291 290 287 284 281 277 273 270 267 265 264 263 263 262 260 259 257 256 255 254 253 251 250
227 230 233 234 234 233 232 232 234 237 240 242 244 245 245 246 250 252 252 253 254 258 267 273 274 273 272 272 274 277 282 286 290 293 296 296 294 294 295 294 291 291 293 293 293 293 294 294 294 292 291 290 291 291 290 287 284 280 276 272 269 267 266 264 263 262 260 258 256 255 253 252 251 250
226 231 233 234 235 234 233 232 234 236 239 241 242 244 245 246 246 249 251 252 254 258 265 270 272 272 271 274 277 277 280 288 295 299 298 296 294 294 297 298 296 295 296 296 297 297 297 296 293 292 291 290 290 291 291 290 289 287 283 279 276 275 272 270 267 264 262 260 258 256 254 252 250 249
226 229 232 234 234 234 233 233 234 235 236 240 244 245 246 246 245 248 252 254 256 260 265 267 270 274 275 277 279 282 287 290 289 290 293 297 298 297 298 296 294 297 298 295 292 292 294 297 297 297 297 295 293 291 290 288 286 287 287 284 281 280 278 276 273 269 265 262 259 257 255 252 250 248
228 231 233 235 234 234 233 231 231 234 235 239 244 245 245 244 244 247 252 257 259 261 265 268 272 277 278 278 280 285 288 286 286 289 294 300 302 301 300 295 293 297 299 298 297 296 300 304 303 300 298 297 296 294 292 288 284 281 282 283 285 286 286 284 280 276 272 267 263 260 257 255 251 248
228 232 235 238 237 236 235 232 229 230 231 233 240 243 243 242 242 245 249 254 257 259 263 267 272 275 276 277 279 282 284 289 297 302 299 299 302 303 303 300 298 298 297 299 299 297 299 303 301 297 294 294 295 294 293 292 289 286 282 281 282 284 288 290 289 284 279 275 270 265 261 258 254 250
227 231 236 241 242 240 240 238 235 234 233 234 238 239 238 238 241 246 249 250 251 254 259 264 270 273 275 280 283 285 290 296 304 312 309 305 306 306 305 303 303 302 301 303 300 296 295 296 295 293 290 291 294 294 291 291 291 290 290 288 286 284 284 288 291 290 287 283 278 273 268 263 258 253
227 231 235 240 243 243 242 241 241 242 242 244 247 247 245 242 240 242 248 251 252 253 257 262 267 271 276 284 290 293 300 308 313 312 309 305 304 305 304 305 306 306 308 308 301 294 293 291 288 287 286 288 293 295 295 296 293 290 289 290 290 289 287 288 289 290 289 287 284 280 276 271 264 258
225 229 233 238 241 242 241 240 240 242 246 249 252 253 254 251 245 240 241 246 249 252 259 264 265 268 275 285 292 299 309 318 313 305 301 300 300 299 300 300 299 299 303 304 295 290 292 292 287 284 284 286 290 294 298 301 300 297 294 291 290 289 289 290 289 289 289 288 286 284 281 277 272 265
223 225 229 235 239 242 244 242 237 236 242 249 252 254 254 254 251 244 240 242 245 248 255 263 265 267 274 282 289 298 308 312 307 301 298 298 297 295 295 294 292 296 298 294 288 288 292 296 292 290 292 294 294 295 297 299 302 303 303 301 298 294 292 291 290 290 290 289 287 285 283 281 277 272
223 223 225 230 235 239 242 242 236 230 232 239 247 250 250 251 253 251 247 246 245 245 248 253 258 264 268 274 281 289 297 300 300 298 300 303 300 294 291 287 288 295 297 287 282 288 295 301 301 298 302 304 301 299 298 298 300 301 303 304 304 303 302 297 293 291 291 292 290 287 284 283 281 277
224 223 224 227 232 235 237 239 238 234 229 229 234 239 242 246 248 249 251 252 251 249 248 249 256 264 267 268 272 279 288 292 293 295 298 300 297 291 287 282 283 292 298 289 281 287 298 308 308 305 308 308 304 303 301 298 299 301 304 307 309 312 314 311 304 297 294 293 292 289 285 283 282 281
225 224 224 226 230 232 236 239 240 239 235 231 231 236 240 243 245 247 251 254 255 256 256 258 264 268 267 266 268 275 283 287 290 295 296 295 293 289 289 289 287 295 305 300 293 294 303 313 312 308 310 310 306 305 305 303 305 309 313 315 316 318 320 323 321 314 306 298 292 290 288 283 282 283
226 226 225 226 228 230 234 239 242 243 240 236 236 240 244 247 250 251 253 256 257 257 259 264 268 268 267 269 274 279 284 287 289 289 287 288 293 295 298 302 307 310 309 308 313 312 310 315 315 310 311 312 309 309 311 313 317 319 320 320 320 320 322 325 327 328 326 317 301 293 292 288 285 283
227 228 227 226 227 229 234 238 242 244 242 238 237 241 243 245 249 251 252 256 260 259 257 260 263 265 267 271 276 281 284 286 283 275 274 283 293 299 302 305 311 313 312 323 335 328 317 318 321 318 315 314 314 316 318 321 324 325 324 323 321 321 323 323 324 326 326 324 316 306 299 293 286 280
226 228 229 228 228 229 232 236 239 243 243 238 235 238 241 242 245 250 251 253 257 255 249 250 255 262 270 275 280 287 290 286 279 277 284 289 288 294 303 308 312 313 315 334 341 334 324 323 324 325 323 318 317 322 323 324 326 326 326 324 322 323 325 322 321 320 318 316 315 312 305 296 287 278
225 226 227 230 232 231 232 233 235 239 241 239 236 234 238 242 245 247 248 250 254 254 253 257 261 270 283 284 279 280 281 280 282 289 293 285 278 296 310 309 307 304 306 325 335 333 326 323 322 325 326 317 313 319 322 324 326 327 328 328 326 326 325 322 318 317 315 313 313 311 307 299 289 278
226 226 226 229 232 234 235 235 236 237 239 240 239 236 237 242 245 247 252 261 267 267 271 278 278 279 285 282 269 260 262 271 278 280 277 277 288 307 313 306 302 302 305 319 330 331 325 322 322 323 322 315 311 316 320 322 326 329 331 329 326 324 323 320 316 315 313 313 314 314 310 304 297 284
227 228 227 228 232 234 236 237 238 239 239 241 243 243 243 244 246 253 262 269 272 272 273 274 273 274 275 269 264 266 269 282 304 303 290 291 298 304 302 296 297 303 308 317 327 331 324 320 321 321 321 319 317 318 320 322 325 329 329 327 325 323 321 319 315 312 311 310 310 310 308 304 300 292
228 231 232 231 232 234 236 237 240 243 244 244 246 248 250 251 253 257 262 265 264 265 270 271 269 269 266 261 271 286 295 321 325 314 301 297 300 301 296 292 295 300 306 315 325 328 321 315 317 320 321 322 321 320 321 321 322 324 322 319 318 317 315 314 312 309 308 307 304 304 303 300 296 290
232 234 234 235 235 236 237 237 239 245 248 248 248 251 254 256 258 259 260 258 252 253 260 265 262 260 261 270 298 317 320 318 313 305 300 299 301 301 299 301 305 306 311 319 325 329 324 318 317 319 321 324 323 321 321 321 321 321 319 315 315 317 317 316 314 311 310 308 304 302 301 297 292 284
240 239 235 234 235 236 234 232 235 240 246 248 249 251 252 253 256 256 251 247 245 242 248 256 255 255 257 253 273 287 299 308 307 302 305 307 309 314 315 316 318 318 324 331 335 335 332 325 321 321 323 326 325 322 322 323 323 324 326 328 330 331 330 326 322 321 322 319 313 311 305 293 286 283
242 247 242 235 231 226 223 224 229 234 241 248 249 247 247 247 248 246 239 238 240 236 235 239 237 238 242 251 293 295 297 302 305 310 318 322 327 333 331 327 329 335 342 345 345 342 337 331 328 327 327 330 330 327 326 326 324 327 337 343 339 334 331 330 327 325 326 324 320 319 316 297 280 283
236 243 241 235 228 220 215 217 224 229 236 245 246 243 241 238 235 231 225 222 217 209 206 208 203 212 276 311 310 300 287 281 297 321 334 337 339 339 334 330 334 343 349 351 351 347 342 337 334 332 332 334 333 330 328 328 330 334 340 342 338 332 329 330 328 325 325 323 320 320 320 306 285 280
227 234 235 228 221 217 213 214 221 227 233 239 239 235 232 228 221 213 203 195 191 191 192 189 191 217 255 268 266 264 261 269 299 336 352 348 341 338 336 336 342 348 349 348 348 347 344 342 339 337 337 336 332 329 329 332 338 340 339 338 337 333 331 333 331 328 327 324 318 316 317 313 300 282
212 216 218 215 212 213 215 218 222 226 229 229 227 224 222 217 211 200 189 185 189 197 199 193 194 227 250 244 234 239 245 255 287 330 348 343 336 334 338 344 349 352 347 342 343 344 343 342 341 339 338 337 333 331 338 345 345 342 340 340 339 335 334 334 333 329 327 323 316 312 315 319 315 291
204 203 205 213 215 214 216 219 221 222 222 221 219 216 212 207 202 191 180 178 184 199 214 204 196 231 250 255 251 249 252 268 294 317 326 325 327 336 344 347 346 347 344 338 338 341 341 342 342 339 338 340 337 334 353 3 356 345 344 345 342 337 335 335 334 332 331 326 317 313 319 324 322 303
202 202 203 211 214 212 214 217 216 218 219 219 216 208 198 195 197 189 178 178 188 207 231 238 226 233 242 251 256 257 274 304 309 312 315 320 331 343 345 342 339 339 337 333 335 339 340 342 346 343 339 340 337 331 350 1 358 353 351 348 344 340 337 335 335 337 339 339 336 333 332 330 326 317
202 204 204 208 211 209 211 214 214 216 218 216 210 198 186 186 193 194 192 191 197 215 249 258 254 250 245 246 250 256 289 308 305 305 313 323 333 340 340 337 334 332 330 328 330 336 339 345 351 348 340 337 337 334 346 351 350 352 354 349 343 343 341 338 339 343 345 347 349 348 342 334 333 332
203 205 204 209 209 204 205 211 211 209 208 205 195 183 180 185 195 204 205 196 184 203 239 249 250 247 245 247 246 243 256 278 289 295 304 312 317 325 333 333 329 326 324 322 325 334 340 346 353 353 345 337 337 339 344 345 343 346 350 349 345 346 346 344 343 345 346 348 350 350 345 341 341 340
209 207 203 205 205 200 201 204 201 195 192 188 179 176 184 184 178 193 203 191 188 207 222 230 232 232 237 242 243 244 251 265 279 284 288 296 304 312 320 321 321 320 318 317 324 335 337 337 345 351 347 340 339 340 338 340 343 344 345 345 345 348 350 350 346 343 345 348 347 345 343 340 337 336
220 207 195 194 196 195 194 193 189 185 183 180 178 183 188 173 160 177 195 195 197 207 214 219 221 222 227 236 242 248 248 252 266 276 280 287 296 300 306 314 318 316 313 315 320 325 329 335 344 351 345 336 336 336 330 330 337 343 341 340 344 351 354 353 348 342 342 346 346 344 345 342 333 332
216 199 186 184 184 184 182 180 180 178 177 178 181 181 175 165 164 180 192 192 196 205 212 216 215 213 217 228 235 241 243 245 252 261 270 280 287 290 298 306 307 305 308 314 314 317 331 342 341 339 336 327 324 327 327 327 333 342 345 344 348 354 358 360 357 349 344 345 345 343 344 346 343 342
192 180 173 172 169 165 163 165 169 171 169 166 161 154 154 160 169 179 185 189 197 205 210 210 206 209 222 231 234 241 247 249 252 260 271 281 283 283 285 284 285 294 308 314 309 313 329 335 319 320 331 327 321 326 333 335 338 343 350 354 352 351 356 4 9 7 359 353 350 343 340 344 347 350
161 152 149 150 150 152 157 161 165 167 159 147 141 140 144 159 175 182 185 189 195 202 210 211 206 213 227 230 230 237 248 251 253 263 274 280 281 285 286 285 288 300 310 308 304 309 317 316 308 316 332 329 326 330 335 338 338 339 345 353 354 348 346 354 5 10 10 7 3 352 339 334 336 348
143 137 134 138 144 153 159 160 161 160 153 148 156 160 159 168 189 199 199 197 197 203 212 217 217 220 227 229 229 238 251 254 257 264 274 280 284 288 290 292 297 302 302 300 300 304 309 312 312 318 327 324 324 328 330 331 334 336 339 347 352 350 348 350 355 1 8 15 17 8 350 334 325 327
128 120 117 123 127 130 131 128 131 141 146 150 161 171 173 180 194 202 203 202 203 210 220 229 230 229 231 234 238 245 255 268 280 289 286 283 285 288 289 289 287 284 285 292 296 297 302 309 309 309 313 316 316 320 325 326 327 330 335 342 350 351 350 350 350 354 4 14 19 19 13 2 350 340
115 109 106 109 111 110 113 114 116 128 144 153 161 173 183 186 187 192 201 205 205 210 224 233 236 238 239 242 250 261 270 287 302 295 277 276 284 290 291 290 287 283 286 291 290 290 296 304 302 301 305 308 310 319 321 316 318 322 327 337 348 348 344 346 349 356 6 12 14 23 36 38 35 50